When you browse on this site, cookies collect data to enhance your experience and personalize the content and advertising you see.
Visit our Privacy Policy to learn more. By continuing to use the site, you agree to this use of cookies and data.
  • In Romania
  • List of Countries
  • For 7 days
  • Water Temperature
  • Weather Map
  • Weather Widgets
  • user-avatar
    Login

    Hourly Weather Truto

    Today, 26 May, Tuesday

    Time Temperature Precipitation Wind Pressure Humidity
    00:00 +11°C° 0 mm 1 mps 774 mmHg 85%
    01:00 +11°C° 0 mm 1 mps 774 mmHg 84%
    02:00 +11°C° 0 mm 1 mps 774 mmHg 84%
    03:00 +11°C° 0 mm 1 mps 774 mmHg 83%
    04:00 +12°C° 0 mm 1 mps 774 mmHg 83%
    05:00 +12°C° 0 mm 1 mps 774 mmHg 84%
    06:00 +14°C° 0 mm 1 mps 774 mmHg 84%
    07:00 +15°C° 0 mm 1 mps 774 mmHg 78%
    08:00 +16°C° 0 mm 1 mps 774 mmHg 73%
    09:00 +18°C° 0 mm 1 mps 775 mmHg 67%
    10:00 +19°C° 0 mm 1 mps 775 mmHg 66%
    11:00 +19°C° 0 mm 1 mps 775 mmHg 65%
    12:00 +19°C° 0 mm 2 mps 775 mmHg 64%
    13:00 +18°C° 0 mm 2 mps 775 mmHg 66%
    14:00 +18°C° 0 mm 2 mps 775 mmHg 68%
    15:00 +18°C° 0 mm 2 mps 775 mmHg 71%
    16:00 +18°C° 0 mm 2 mps 774 mmHg 74%
    17:00 +17°C° 0 mm 3 mps 774 mmHg 77%
    18:00 +17°C° 0 mm 3 mps 774 mmHg 80%
    19:00 +14°C° 0 mm 3 mps 774 mmHg 84%
    20:00 +13°C° 0 mm 3 mps 774 mmHg 88%
    21:00 +12°C° 0 mm 4 mps 774 mmHg 92%
    22:00 +12°C° 0 mm 4 mps 774 mmHg 92%
    23:00 +12°C° 0 mm 3 mps 774 mmHg 93%

    Tomorrow, 27 May, Wednesday

    Time Temperature Precipitation Wind Pressure Humidity
    00:00 +12°C° 0 mm 3 mps 774 mmHg 93%
    01:00 +12°C° 0 mm 3 mps 774 mmHg 93%
    02:00 +12°C° 0 mm 3 mps 774 mmHg 94%
    03:00 +12°C° 0 mm 3 mps 773 mmHg 94%
    04:00 +14°C° 0 mm 2 mps 773 mmHg 93%
    05:00 +15°C° 0 mm 2 mps 773 mmHg 92%
    06:00 +15°C° 0 mm 2 mps 773 mmHg 90%
    07:00 +16°C° 0 mm 2 mps 774 mmHg 87%
    08:00 +18°C° 0 mm 2 mps 774 mmHg 83%
    09:00 +19°C° 0 mm 2 mps 774 mmHg 80%
    10:00 +19°C° 0 mm 2 mps 774 mmHg 79%
    11:00 +20°C° 0 mm 2 mps 774 mmHg 78%
    12:00 +20°C° 0 mm 2 mps 773 mmHg 77%
    13:00 +20°C° 0 mm 3 mps 773 mmHg 77%
    14:00 +20°C° 0 mm 3 mps 773 mmHg 78%
    15:00 +20°C° 0 mm 3 mps 773 mmHg 79%
    16:00 +20°C° 0 mm 3 mps 773 mmHg 80%
    17:00 +19°C° 0 mm 3 mps 772 mmHg 81%
    18:00 +19°C° 0 mm 3 mps 772 mmHg 82%
    19:00 +18°C° 0 mm 3 mps 772 mmHg 85%
    20:00 +16°C° 0 mm 3 mps 772 mmHg 87%
    21:00 +15°C° 0 mm 2 mps 772 mmHg 90%
    22:00 +14°C° 0 mm 3 mps 772 mmHg 91%
    23:00 +14°C° 0 mm 3 mps 772 mmHg 91%

    Day after tomorrow, 28 May, Thursday

    Time Temperature Precipitation Wind Pressure Humidity
    00:00 +14°C° 0 mm 3 mps 772 mmHg 92%
    01:00 +14°C° 0 mm 4 mps 771 mmHg 93%
    02:00 +13°C° 0 mm 4 mps 771 mmHg 93%
    03:00 +13°C° 0 mm 5 mps 771 mmHg 94%
    04:00 +13°C° 0 mm 6 mps 771 mmHg 92%
    05:00 +14°C° 0 mm 6 mps 771 mmHg 91%
    06:00 +14°C° 0 mm 7 mps 770 mmHg 89%
    07:00 +14°C° 0 mm 7 mps 770 mmHg 85%
    08:00 +15°C° 0 mm 8 mps 770 mmHg 81%
    09:00 +16°C° 0 mm 8 mps 770 mmHg 77%
    10:00 +16°C° 0 mm 8 mps 770 mmHg 72%
    11:00 +17°C° 0 mm 8 mps 770 mmHg 67%
    12:00 +17°C° 0 mm 9 mps 769 mmHg 62%
    13:00 +17°C° 0 mm 9 mps 769 mmHg 62%
    14:00 +17°C° 0 mm 9 mps 769 mmHg 63%
    15:00 +17°C° 0 mm 9 mps 768 mmHg 63%
    16:00 +16°C° 0 mm 9 mps 768 mmHg 64%
    17:00 +15°C° 0 mm 9 mps 768 mmHg 66%
    18:00 +15°C° 0 mm 9 mps 767 mmHg 67%
    19:00 +13°C° 0 mm 9 mps 767 mmHg 65%
    20:00 +13°C° 0 mm 8 mps 767 mmHg 63%
    21:00 +13°C° 0 mm 8 mps 767 mmHg 61%
    22:00 +13°C° 0 mm 8 mps 767 mmHg 66%
    23:00 +12°C° 0 mm 8 mps 767 mmHg 71%

    29 May, Friday

    Time Temperature Precipitation Wind Pressure Humidity
    00:00 +12°C° 0 mm 8 mps 766 mmHg 77%
    01:00 +12°C° 0 mm 8 mps 766 mmHg 80%
    02:00 +12°C° 0 mm 8 mps 766 mmHg 83%
    03:00 +12°C° 0 mm 9 mps 766 mmHg 86%
    04:00 +12°C° 0 mm 8 mps 765 mmHg 86%
    05:00 +12°C° 0 mm 8 mps 765 mmHg 86%
    06:00 +12°C° 0 mm 8 mps 765 mmHg 86%
    07:00 +13°C° 0 mm 8 mps 765 mmHg 84%
    08:00 +15°C° 0 mm 8 mps 765 mmHg 81%
    09:00 +16°C° 0 mm 8 mps 765 mmHg 79%
    10:00 +16°C° 0 mm 8 mps 765 mmHg 77%
    11:00 +17°C° 0 mm 8 mps 765 mmHg 74%
    12:00 +17°C° 0 mm 8 mps 765 mmHg 72%
    13:00 +17°C° 0 mm 8 mps 764 mmHg 71%
    14:00 +17°C° 0 mm 8 mps 764 mmHg 71%
    15:00 +17°C° 0 mm 8 mps 764 mmHg 71%
    16:00 +17°C° 0 mm 8 mps 764 mmHg 72%
    17:00 +16°C° 0 mm 8 mps 763 mmHg 73%
    18:00 +15°C° 0 mm 8 mps 763 mmHg 74%
    19:00 +15°C° 0 mm 8 mps 763 mmHg 75%
    20:00 +13°C° 0 mm 8 mps 763 mmHg 76%
    21:00 +13°C° 0 mm 8 mps 763 mmHg 77%
    22:00 +13°C° 0 mm 8 mps 763 mmHg 77%
    23:00 +13°C° 0 mm 8 mps 763 mmHg 78%

    30 May, Saturday

    Time Temperature Precipitation Wind Pressure Humidity
    00:00 +13°C° 0 mm 8 mps 763 mmHg 79%
    01:00 +14°C° 0 mm 7 mps 763 mmHg 82%
    02:00 +12°C° 0 mm 7 mps 763 mmHg 84%
    03:00 +12°C° 0 mm 7 mps 763 mmHg 87%
    04:00 +12°C° 0 mm 7 mps 763 mmHg 87%
    05:00 +14°C° 0 mm 6 mps 763 mmHg 87%
    06:00 +14°C° 0 mm 6 mps 763 mmHg 87%
    07:00 +15°C° 0 mm 6 mps 763 mmHg 85%
    08:00 +15°C° 0 mm 6 mps 763 mmHg 82%
    09:00 +16°C° 0 mm 7 mps 763 mmHg 80%
    10:00 +17°C° 0 mm 7 mps 763 mmHg 78%
    11:00 +17°C° 0 mm 7 mps 764 mmHg 75%
    12:00 +18°C° 0 mm 7 mps 764 mmHg 72%
    13:00 +19°C° 0 mm 6 mps 763 mmHg 72%
    14:00 +17°C° 0 mm 6 mps 763 mmHg 72%
    15:00 +17°C° 0 mm 6 mps 763 mmHg 72%
    16:00 +17°C° 0 mm 6 mps 763 mmHg 73%
    17:00 +16°C° 0 mm 5 mps 763 mmHg 75%
    18:00 +16°C° 0 mm 5 mps 763 mmHg 76%
    19:00 +15°C° 0 mm 5 mps 763 mmHg 79%
    20:00 +14°C° 0 mm 5 mps 763 mmHg 81%
    21:00 +12°C° 0 mm 5 mps 763 mmHg 83%
    22:00 +12°C° 0 mm 4 mps 763 mmHg 82%
    23:00 +12°C° 0 mm 4 mps 763 mmHg 82%

    31 May, Sunday

    Time Temperature Precipitation Wind Pressure Humidity
    00:00 +12°C° 0 mm 4 mps 763 mmHg 81%
    01:00 +12°C° 0 mm 5 mps 763 mmHg 84%
    02:00 +12°C° 0 mm 5 mps 762 mmHg 86%
    03:00 +12°C° 0 mm 5 mps 762 mmHg 89%
    04:00 +13°C° 0 mm 5 mps 762 mmHg 89%
    05:00 +13°C° 0 mm 5 mps 762 mmHg 88%
    06:00 +13°C° 0 mm 5 mps 762 mmHg 88%
    07:00 +14°C° 0 mm 5 mps 762 mmHg 86%
    08:00 +15°C° 0 mm 5 mps 762 mmHg 84%
    09:00 +16°C° 0 mm 5 mps 763 mmHg 83%
    10:00 +16°C° 0 mm 5 mps 763 mmHg 81%
    11:00 +17°C° 0 mm 5 mps 763 mmHg 79%
    12:00 +18°C° 0 mm 4 mps 763 mmHg 78%
    13:00 +19°C° 0 mm 4 mps 762 mmHg 77%
    14:00 +19°C° 0 mm 3 mps 762 mmHg 76%
    15:00 +19°C° 0 mm 3 mps 762 mmHg 75%
    16:00 +19°C° 0 mm 3 mps 762 mmHg 76%
    17:00 +18°C° 0 mm 2 mps 762 mmHg 77%
    18:00 +18°C° 0 mm 2 mps 761 mmHg 78%
    19:00 +17°C° 0 mm 2 mps 761 mmHg 82%
    20:00 +15°C° 0 mm 2 mps 761 mmHg 85%
    21:00 +14°C° 0 mm 2 mps 761 mmHg 89%
    22:00 +14°C° 0 mm 2 mps 761 mmHg 89%
    23:00 +14°C° 0 mm 1 mps 761 mmHg 89%
    Show more